Location: Canazei
(46.4667°N, 11.7667°E)
Time: 18:10:07
(UTC+00:00)

Cosmos 1943 Rocket - Pass Details

Date: 21 April 2021
Orbit: 812 x 843 km, 71.0° (Epoch: 11 May)

Event Time Altitude Azimuth Distance (km) Brightness Sun altitude
Exits shadow 03:10:44 14° 234° (SW) 2,175 3.7 -10.9°
Maximum altitude 03:15:20 46° 304° (WNW) 1,120 2.7 -10.3°
Drops below altitude 10° 03:20:46 10° 17° (NNE) 2,461 5.3 -9.4°
Sets 03:23:19 0° 24° (NNE) 3,395 6.3 -9.0°
